Theta_e
330 331 330 331 329 328 334 337 337 338 340 341 342 340 341 347 339 331 340 351 344 341 347 347 344 343 342 342 342 341 341 342 340 338 338 339 342 343 344 346 346 347 348 348 349 350 350 349 348 349 350 352 352 352 353 353 352 352 351 351 351 352 350 351 351 351 353 354 355 355 356 355 355 355 355 355 355 354 354 353 350 348 347 347 349 350 352
336 333 332 333 332 333 336 338 338 339 341 344 344 343 346 349 343 338 345 351 347 343 344 343 339 338 338 339 340 339 340 341 341 340 338 339 341 342 342 345 347 347 348 349 349 349 350 350 349 348 348 349 350 352 355 355 352 352 352 350 351 351 350 351 351 350 353 355 357 358 357 356 355 354 354 353 353 353 355 355 353 349 349 348 349 350 351
338 335 333 332 333 337 339 338 339 340 339 343 346 346 349 348 346 346 347 348 347 343 339 338 337 337 338 338 337 339 339 340 341 340 339 339 341 341 341 343 347 348 348 348 348 348 350 350 351 350 348 347 349 352 355 355 354 354 353 350 351 352 351 350 349 351 355 357 358 359 357 354 351 352 353 353 353 354 355 355 353 351 349 349 349 349 350
336 335 331 330 333 340 341 339 342 342 339 341 343 345 346 343 343 347 346 344 346 344 338 336 337 337 337 337 337 338 338 339 341 340 340 341 342 342 341 343 347 348 348 348 348 349 349 349 350 352 352 350 348 348 349 349 351 353 353 352 353 354 353 351 351 354 356 356 356 355 354 350 348 349 352 353 354 356 357 356 353 351 349 349 350 351 351
337 337 333 331 329 335 340 341 341 342 342 342 344 345 345 342 342 346 345 343 343 341 337 338 339 337 336 337 337 337 338 339 340 341 341 341 341 342 341 342 345 346 345 347 348 348 349 350 349 350 353 352 349 347 345 344 343 344 349 353 353 354 354 354 355 357 356 353 351 349 346 347 348 350 351 351 353 355 356 354 353 352 351 350 350 351 352
337 338 337 333 330 334 340 340 339 342 343 344 348 347 343 342 344 345 343 343 342 339 337 339 339 337 337 337 336 338 339 340 340 340 340 340 340 341 341 340 342 343 344 347 349 349 350 350 349 351 352 352 351 349 346 345 342 343 347 351 350 351 354 355 355 355 352 349 346 343 343 346 348 349 349 349 351 354 354 353 352 352 351 349 349 351 352
337 343 341 334 332 338 342 340 339 342 342 343 348 348 343 342 344 344 342 341 340 337 336 337 337 337 337 336 338 340 339 338 338 339 339 339 340 340 340 340 341 341 344 348 348 348 350 351 351 351 351 352 352 352 351 349 346 347 350 351 350 351 353 354 351 348 348 347 345 344 344 346 346 347 347 348 350 351 352 352 352 351 349 348 349 351 351
337 339 336 330 332 340 344 343 342 342 344 344 343 343 343 341 340 340 340 338 337 335 335 337 337 337 337 336 338 339 337 337 338 338 339 339 339 340 340 339 339 341 345 348 348 348 350 351 351 350 350 351 352 353 354 353 351 351 352 353 353 352 353 352 349 346 346 348 348 345 345 346 347 347 347 348 348 349 349 350 350 349 349 349 350 350 351
334 333 331 331 336 341 345 348 345 341 342 344 340 340 343 339 335 337 338 338 336 334 335 337 337 337 337 337 337 337 336 337 338 338 338 338 338 340 340 339 339 342 346 348 349 349 349 350 351 351 351 352 353 353 353 353 354 354 354 354 354 353 354 353 349 346 347 349 350 349 348 349 349 348 348 346 345 346 347 347 348 348 349 351 351 352 352
332 332 332 333 335 339 345 349 345 339 338 340 338 338 341 338 333 334 337 338 336 334 335 337 336 337 338 339 338 336 336 337 338 338 338 338 338 338 339 339 341 343 346 347 348 349 348 348 350 351 351 351 352 353 352 352 352 353 354 356 355 355 355 352 348 347 347 349 350 349 349 349 349 348 347 345 344 345 347 348 349 350 351 351 351 352 351
332 330 331 334 337 341 347 349 344 337 336 337 335 335 341 339 332 332 336 335 334 335 335 336 336 338 341 341 338 335 337 337 337 338 338 338 338 337 339 341 342 343 345 344 345 348 348 348 348 349 349 351 351 353 353 352 351 352 354 355 356 356 355 352 351 349 347 346 347 347 349 350 350 349 347 345 345 347 348 350 352 352 352 352 351 351 349
337 334 330 336 342 344 347 348 342 335 334 336 333 335 340 338 333 333 336 334 334 335 335 335 337 339 340 340 336 335 337 337 337 338 338 338 338 338 339 342 343 344 343 341 342 346 346 346 346 345 345 348 349 351 353 352 352 353 353 354 355 354 353 353 351 349 346 346 346 346 348 348 349 350 349 347 347 347 349 352 354 354 353 352 351 349 349
340 336 331 336 345 345 340 341 339 332 333 337 337 338 339 336 334 335 335 334 334 334 334 335 337 337 337 336 335 335 336 336 337 337 337 338 339 338 339 342 344 345 343 339 340 345 346 346 345 343 343 346 348 350 351 351 352 353 354 355 354 351 350 350 350 349 348 347 348 348 348 346 347 349 349 349 349 349 351 353 353 353 352 351 350 349 348
336 338 335 335 340 341 334 334 335 330 332 339 341 338 336 333 334 335 334 334 334 334 334 335 335 335 335 334 334 335 335 335 337 337 337 339 339 338 340 342 344 344 342 339 342 346 347 348 346 344 344 345 347 349 350 350 351 351 353 355 355 352 351 350 351 351 349 347 348 348 345 344 344 346 348 350 351 351 352 353 352 351 350 349 349 349 347
338 340 337 333 337 338 333 333 336 334 334 338 338 333 332 332 334 334 334 334 334 334 334 334 334 334 334 334 334 334 334 335 336 337 338 339 339 340 341 342 343 344 343 343 345 346 347 346 346 345 344 344 344 347 349 350 350 351 353 353 353 354 353 352 351 350 348 348 349 347 341 340 342 346 348 350 351 352 352 352 350 349 349 349 349 348 346
336 338 341 340 340 338 333 332 337 337 334 334 331 330 332 331 331 333 333 332 332 333 333 333 333 333 334 334 334 334 334 335 336 338 338 338 339 340 340 341 343 343 343 344 345 345 345 344 343 342 341 338 336 339 344 347 348 351 353 353 354 353 353 352 352 351 351 352 351 346 342 342 346 349 350 351 350 351 351 350 349 348 348 348 348 347 343
334 341 349 345 337 333 332 332 334 334 332 331 330 331 331 330 330 332 332 331 332 332 332 332 333 333 334 334 334 334 335 335 336 337 336 337 339 339 339 341 342 341 342 343 342 342 343 342 340 340 340 339 338 339 344 346 348 351 352 353 353 353 352 352 352 352 352 351 348 344 342 346 350 351 351 350 350 350 349 349 348 347 348 348 347 344 341
334 337 341 336 331 332 332 332 332 333 333 332 332 331 331 331 332 332 331 332 332 332 332 333 334 334 334 334 334 335 335 335 335 335 335 337 340 340 339 340 340 340 341 341 339 340 341 340 340 341 342 343 344 344 346 347 348 350 351 351 351 352 352 352 351 349 347 347 345 341 341 346 351 352 351 350 349 349 349 348 346 347 348 347 345 341 339
335 337 337 334 332 332 332 332 333 333 332 332 332 332 332 332 332 332 332 333 332 333 333 333 333 333 333 333 334 334 334 335 335 335 336 338 339 340 339 338 339 340 341 339 339 341 342 341 341 342 343 345 347 347 347 347 347 348 349 350 350 350 351 351 348 344 344 345 344 341 343 349 351 352 352 351 350 349 348 347 346 347 348 346 343 340 339
339 341 339 334 331 331 331 332 333 332 332 331 331 331 331 332 332 332 332 332 332 332 332 332 332 332 332 332 332 333 333 335 335 336 337 338 338 339 339 339 340 341 341 339 340 342 342 342 343 343 344 347 348 348 348 349 349 349 349 350 350 349 350 350 349 347 347 347 344 342 347 351 352 352 351 350 350 349 347 346 346 347 347 345 342 340 339
340 338 335 330 331 334 332 330 331 332 332 331 331 331 331 331 331 331 330 331 331 330 330 331 331 331 331 332 332 333 333 334 335 336 337 337 338 338 339 340 340 340 339 338 340 342 344 345 344 345 346 346 348 348 349 350 350 350 350 350 350 349 349 351 352 352 351 348 344 342 346 350 352 352 351 350 349 348 347 347 347 346 346 345 342 340 341
341 338 335 332 335 340 336 330 332 333 332 331 331 331 330 330 330 330 330 330 330 330 331 331 331 331 332 332 332 333 334 334 335 336 336 337 337 338 339 340 340 339 336 337 340 342 345 346 347 347 347 346 348 350 350 350 351 350 351 350 350 349 349 350 352 353 352 351 347 345 346 349 350 350 350 350 349 348 347 347 347 346 345 344 343 342 342
340 337 334 332 334 338 335 331 332 332 332 332 331 330 330 329 329 330 331 330 330 330 331 331 331 332 333 333 333 334 334 334 335 336 336 338 338 338 339 340 339 336 334 337 339 341 344 345 347 347 346 346 349 350 350 351 351 350 351 351 349 348 349 350 351 351 350 350 349 347 347 348 348 348 348 349 349 347 347 347 347 346 345 345 344 344 344
336 333 333 332 333 333 332 331 332 332 331 331 330 329 329 329 329 330 331 330 331 331 332 332 333 333 333 333 334 334 335 335 336 336 337 338 338 337 339 339 337 333 334 338 339 340 343 344 346 347 346 346 348 349 349 349 350 350 350 351 349 347 348 350 351 350 349 349 348 348 349 349 347 346 346 346 347 347 347 347 346 346 345 345 345 344 342
334 333 333 333 332 333 332 332 331 330 330 330 329 329 329 330 331 331 331 331 332 332 332 333 333 333 334 334 334 335 335 336 336 337 337 337 337 338 339 339 335 332 335 338 339 341 343 345 345 346 346 346 347 350 349 348 348 349 350 350 349 346 347 350 351 349 348 348 347 348 349 347 346 345 344 344 345 346 347 347 346 346 345 344 343 342 339
334 333 332 332 332 331 331 330 329 330 330 329 329 331 331 331 332 331 331 332 333 333 333 334 334 333 334 334 335 335 335 335 336 336 337 337 338 339 340 338 334 333 336 338 339 342 344 345 346 346 346 345 347 349 350 349 348 348 348 349 347 345 346 349 349 348 348 348 347 348 347 345 345 345 344 344 345 345 346 347 346 345 345 343 342 340 338
332 332 331 331 331 330 330 330 330 330 331 330 331 331 331 331 331 331 331 332 333 333 334 334 333 334 334 334 335 335 335 335 336 335 336 337 338 339 339 338 335 335 338 339 340 343 344 344 345 345 346 345 346 348 349 349 347 347 347 347 345 345 347 347 346 346 347 347 347 347 346 345 345 344 344 345 345 345 346 345 344 344 343 342 339 337 336
331 331 330 330 330 330 330 330 331 331 331 331 331 331 331 331 331 331 332 333 333 333 334 333 334 334 334 335 335 335 335 335 335 336 336 337 338 338 338 338 336 336 338 340 341 342 342 343 343 344 345 345 345 346 348 349 347 346 346 345 344 345 347 347 345 345 346 347 347 347 346 345 345 345 345 346 346 345 345 344 343 342 341 338 336 333 331
330 330 330 330 330 331 331 330 331 331 331 331 331 331 332 332 332 332 333 333 333 333 333 333 333 334 334 335 335 335 335 334 335 336 336 337 338 338 338 338 337 337 338 340 341 341 341 341 343 343 343 344 345 346 348 349 348 346 345 345 344 345 347 347 347 346 346 347 347 347 346 346 345 345 345 346 345 345 345 343 341 339 337 335 333 329 325
330 329 330 330 330 330 331 330 330 331 331 331 331 331 332 333 333 333 333 333 333 334 333 333 333 333 334 334 334 335 335 335 335 337 337 337 338 338 338 338 338 338 339 340 340 340 341 342 343 343 343 343 344 345 347 348 348 347 346 345 344 345 346 346 346 346 346 347 346 346 346 346 346 346 346 345 345 344 343 341 338 336 335 332 329 324 319
330 330 330 330 330 330 331 330 331 332 332 331 331 332 332 332 332 333 333 333 334 334 334 333 333 333 333 333 334 335 336 336 337 337 337 337 338 338 338 339 339 339 339 340 340 340 341 342 343 343 343 342 343 345 346 347 347 347 346 345 345 345 345 345 345 345 345 345 345 345 345 345 346 345 345 344 343 342 340 338 336 335 332 328 323 317 315
330 330 330 331 330 331 331 332 332 332 332 332 332 332 332 332 332 334 334 333 333 334 333 333 333 333 333 334 335 335 336 337 337 337 336 336 337 338 338 339 340 340 339 339 340 341 342 342 343 343 343 343 343 344 345 346 346 347 346 345 345 345 345 344 344 344 344 344 344 344 344 344 343 343 343 342 341 339 338 336 335 333 330 324 318 314 314
330 330 331 331 331 332 332 331 332 332 333 333 333 333 332 332 333 333 334 333 334 333 333 333 334 333 334 335 336 336 336 337 336 335 334 335 335 337 339 339 340 339 338 339 340 341 342 342 343 343 343 343 343 344 344 345 346 347 346 345 345 345 345 344 343 342 343 343 343 344 343 343 341 340 340 340 339 337 336 335 333 329 325 322 318 317 317
330 331 331 332 332 331 332 332 333 333 333 333 333 333 333 332 333 333 333 333 333 333 333 333 334 334 334 335 335 335 336 335 334 334 334 333 334 337 338 339 339 338 337 338 339 340 341 342 342 342 342 343 343 344 345 346 346 347 346 345 345 345 345 343 342 342 342 342 343 343 342 341 339 338 338 338 337 336 334 332 328 324 321 320 320 320 320
330 331 331 332 331 332 332 333 333 333 333 333 333 333 333 333 333 332 333 332 333 333 333 333 334 334 334 334 335 334 334 334 333 333 333 333 334 336 337 337 338 338 338 338 339 339 340 341 341 341 341 342 342 343 344 345 346 346 346 345 344 345 345 344 342 341 342 342 342 341 340 339 338 338 336 334 334 333 331 328 324 321 321 322 321 321 320
331 331 331 332 332 332 332 332 333 333 333 333 333 333 333 333 332 332 332 332 332 333 332 332 332 333 333 334 333 332 332 331 331 332 332 333 334 335 335 336 337 338 338 338 339 339 340 341 341 341 341 341 342 343 343 343 345 346 345 345 345 345 344 343 342 341 341 341 340 339 338 338 338 336 333 332 332 331 329 326 322 321 322 322 322 321 320
331 331 331 332 332 332 332 333 333 333 333 333 333 332 332 331 331 331 332 331 331 331 330 330 330 331 332 332 331 331 330 330 330 331 333 333 333 335 335 337 337 338 338 338 338 338 339 339 339 340 341 342 342 343 342 342 343 344 344 344 345 344 343 343 342 342 341 340 338 338 338 336 335 332 330 330 329 325 323 323 324 321 320 321 321 320 320
331 331 332 332 332 332 332 332 332 333 332 332 332 331 330 330 330 329 329 329 328 328 328 328 328 329 330 330 329 330 330 330 330 331 332 333 334 335 336 337 337 337 337 337 337 337 337 337 338 339 341 342 343 343 343 342 343 343 343 344 343 343 343 343 342 342 341 340 339 337 336 333 332 330 329 329 326 320 317 320 323 322 319 319 320 320 319
331 331 332 332 331 331 332 331 331 331 331 330 330 329 328 327 327 327 327 327 327 327 327 328 328 328 328 328 329 330 330 330 331 331 331 332 332 333 335 335 334 334 334 335 335 336 335 336 336 337 339 340 341 342 342 342 342 342 342 342 341 341 341 341 340 340 340 338 336 334 333 331 330 329 328 325 321 315 312 315 320 321 320 319 319 319 318
331 331 332 331 330 331 331 331 330 330 329 328 328 327 325 325 325 325 327 327 328 328 328 328 328 328 328 329 329 329 330 330 330 330 330 331 331 332 332 332 332 333 334 334 335 336 336 337 337 337 337 338 339 340 341 342 341 340 340 340 340 339 338 337 337 337 336 334 332 332 332 330 328 326 324 320 315 312 311 315 319 320 319 319 319 318 317
331 331 331 331 330 331 330 329 328 328 327 327 327 325 324 323 324 325 326 327 328 328 329 329 328 328 328 329 329 328 329 329 329 329 330 330 330 330 330 330 330 332 333 334 335 335 336 336 336 336 336 336 337 338 340 340 340 339 339 339 337 335 334 334 334 334 333 332 331 330 329 327 324 322 321 318 316 315 316 318 319 319 318 318 317 317 316
331 331 331 330 330 329 328 327 327 327 326 326 326 325 323 323 324 325 326 327 328 328 328 328 328 328 328 328 328 328 328 328 328 329 329 328 328 329 328 328 328 330 332 332 333 333 333 333 333 334 334 334 334 336 337 337 337 336 336 335 334 333 332 332 332 331 330 329 327 326 324 323 321 320 319 319 318 318 318 318 318 318 317 317 316 315 315
331 331 330 329 328 328 327 327 326 326 326 325 325 324 323 324 324 325 326 327 327 328 327 327 327 327 327 327 327 327 327 327 327 327 327 326 327 327 327 327 328 329 330 331 331 330 330 330 331 332 332 332 332 332 333 333 333 332 332 331 331 330 329 328 328 327 326 324 323 323 322 320 319 318 318 319 319 319 319 318 318 317 316 315 315 315 315
331 331 329 329 328 327 326 326 326 326 325 325 324 323 324 324 325 326 326 326 327 326 326 326 326 326 326 326 326 326 325 325 324 323 322 321 321 322 323 323 325 326 326 327 327 326 326 327 328 329 330 331 331 331 331 331 331 331 330 329 328 326 324 323 323 322 321 321 321 321 319 318 318 318 319 319 318 318 318 317 316 316 315 315 315 315 315
329 329 328 328 327 326 326 326 325 325 325 325 324 324 325 325 325 325 325 324 324 324 324 325 325 325 326 325 324 323 322 321 320 318 316 315 314 315 315 318 321 322 322 322 323 323 323 323 324 324 325 326 327 327 326 326 326 326 325 324 322 321 319 318 317 316 316 317 318 318 317 317 318 319 318 318 318 317 317 316 315 315 316 316 316 316 316
327 327 327 327 326 326 325 325 325 325 325 324 325 325 324 324 323 322 321 320 320 321 322 323 324 325 325 325 324 323 322 321 319 317 315 313 312 310 309 311 316 320 321 321 321 321 321 321 320 319 318 318 320 321 321 321 320 319 319 317 317 316 316 317 316 316 316 316 318 318 319 318 318 318 317 317 317 316 316 316 316 316 316 317 317 316 315
327 327 326 326 325 325 325 324 324 324 324 324 324 324 322 321 320 318 317 317 317 318 319 321 323 324 324 324 323 323 322 321 319 318 316 314 312 310 307 307 310 314 317 317 317 317 318 318 318 316 315 314 314 316 317 317 316 316 316 315 315 316 317 318 318 318 318 318 318 318 318 317 317 317 317 317 316 316 316 317 317 317 317 316 316 315 314
328 328 327 326 325 325 324 323 322 322 322 322 322 321 320 318 315 313 312 313 314 315 317 319 320 321 322 322 321 320 319 319 318 317 317 316 314 311 310 310 309 310 312 313 313 313 314 314 314 315 315 315 315 315 316 316 316 316 316 316 316 316 316 317 317 317 317 317 317 317 317 317 317 317 317 316 317 317 317 317 316 316 315 315 315 314 314
328 328 327 326 325 325 324 322 319 318 317 318 317 318 317 315 312 309 309 310 311 312 313 316 318 319 320 319 318 316 316 315 315 315 315 315 315 314 313 313 313 312 313 314 314 314 314 314 314 314 315 315 316 317 317 316 316 316 316 316 316 316 316 316 316 317 317 317 316 316 317 316 317 317 317 317 317 317 317 317 316 315 315 314 315 315 316
328 328 327 326 326 325 324 322 319 317 316 316 315 315 314 312 310 309 309 309 309 308 309 311 313 315 315 315 314 314 314 314 314 314 315 315 315 315 314 314 314 314 314 314 314 314 315 316 316 316 315 315 316 316 316 316 316 316 316 316 316 316 316 316 316 316 317 316 316 316 317 316 317 317 317 317 317 317 316 316 315 315 315 315 316 316 316
328 327 326 326 325 325 324 323 321 320 320 319 317 314 312 310 309 310 310 311 311 310 309 308 309 310 310 310 311 312 312 313 314 314 314 314 314 315 314 314 314 314 315 314 314 313 313 313 314 315 316 316 316 317 317 316 316 316 316 316 317 317 317 317 317 317 317 317 317 317 317 316 316 316 316 316 316 316 315 314 314 314 314 315 315 315 315
328 327 325 324 324 324 324 323 323 322 321 320 318 315 311 309 309 311 313 313 314 313 312 312 311 312 312 312 311 311 312 313 313 314 314 314 314 314 315 315 315 314 315 315 316 315 314 313 313 313 314 315 316 316 317 317 317 317 317 317 317 317 317 317 317 317 317 317 317 317 316 316 316 315 315 315 316 316 315 315 315 314 314 315 315 315 314
Wind_Speed
6 5 5 7 4 2 5 7 7 8 9 10 9 4 2 4 4 3 5 1 3 3 4 4 5 6 5 4 6 11 12 11 15 19 21 22 20 20 22 22 22 23 23 21 16 11 12 12 13 17 21 24 24 24 26 26 26 26 26 29 37 39 35 33 33 30 29 29 27 25 26 26 27 27 27 26 25 25 24 21 17 16 15 17 20 22 22
6 5 6 8 4 5 7 7 7 7 8 8 7 4 3 5 4 4 3 4 3 2 3 4 6 8 9 9 11 14 14 13 14 19 21 22 22 23 25 25 24 23 23 24 22 15 13 14 13 14 18 21 24 26 28 27 25 26 27 30 36 40 38 34 31 28 29 30 27 26 26 25 25 26 26 26 26 26 24 20 18 17 16 17 19 21 23
5 6 6 6 6 8 8 7 7 7 7 6 5 3 3 3 1 3 3 4 1 3 5 6 8 11 13 14 14 15 15 14 15 17 20 22 23 25 27 25 23 23 23 24 26 21 15 17 15 13 14 18 21 23 25 25 25 26 27 30 36 40 38 33 30 30 31 28 23 22 23 23 22 24 25 25 25 24 21 19 19 19 18 19 20 19 21
4 5 6 5 6 10 9 7 6 5 4 3 2 2 2 1 1 3 5 2 2 4 7 8 8 11 13 14 14 15 18 18 15 15 19 21 22 24 26 24 22 23 25 26 27 24 17 17 17 13 12 13 12 12 14 18 20 23 26 30 34 37 36 32 30 28 24 17 13 13 17 19 20 23 24 24 23 23 22 22 22 20 19 20 19 19 20
4 6 6 5 3 5 3 3 3 3 3 3 2 2 3 1 1 2 1 2 4 4 6 6 6 9 10 13 16 18 18 16 13 14 18 20 21 22 24 23 21 24 28 27 25 23 19 17 16 13 12 11 11 12 13 15 17 18 23 30 32 32 30 26 22 18 13 9 8 12 16 17 19 21 23 23 24 24 24 24 22 19 18 18 18 19 20
3 7 5 4 3 2 3 3 1 2 2 1 1 1 2 2 1 1 2 2 3 4 5 5 6 8 11 18 19 13 11 13 13 15 18 20 20 20 23 24 23 26 29 26 21 20 20 18 15 11 10 10 9 10 13 16 16 16 21 27 28 25 22 18 13 10 9 10 10 13 16 17 17 19 21 22 22 23 23 22 19 18 17 17 18 19 19
2 3 4 4 2 4 5 3 2 4 4 3 3 3 4 2 1 2 2 2 4 6 8 7 9 12 17 21 13 6 9 15 16 16 18 20 21 20 23 26 25 26 27 23 19 19 20 18 14 10 9 9 9 9 12 16 17 17 20 24 24 23 22 19 13 10 10 12 12 11 13 14 16 19 20 20 20 21 21 20 18 18 17 18 18 19 18
1 1 3 0 3 3 2 2 2 3 3 3 2 2 5 3 2 2 1 3 5 7 10 10 11 15 19 15 5 4 13 20 19 18 18 20 20 21 23 25 25 26 25 20 18 19 19 18 13 8 7 8 11 11 12 15 17 18 20 23 24 24 25 22 16 12 11 12 13 13 13 15 16 18 19 19 19 19 19 19 18 18 18 18 18 18 17
1 1 1 0 1 2 3 3 2 1 0 1 2 1 5 3 2 2 1 3 5 8 11 12 13 15 16 9 4 10 19 21 21 20 19 19 20 21 22 21 22 25 22 17 17 19 20 19 14 10 9 9 11 12 11 13 17 19 22 24 24 24 24 21 15 12 11 12 14 15 15 16 17 19 20 18 16 17 19 19 19 19 19 19 18 17 16
2 3 1 1 0 3 4 4 5 4 5 6 4 2 4 4 1 2 1 2 5 8 11 12 12 12 9 4 8 18 23 22 22 22 20 19 19 21 21 18 19 22 20 16 16 20 22 20 15 13 13 13 13 13 11 13 14 17 22 24 23 21 20 17 14 12 11 12 13 15 16 16 18 20 21 18 16 16 18 20 22 22 22 21 19 16 15
1 3 1 2 3 4 5 6 6 5 6 7 2 2 4 4 2 4 3 3 7 9 10 11 9 8 5 3 11 21 24 22 23 23 21 21 20 21 20 16 17 21 19 16 17 19 21 19 15 14 15 16 15 13 12 12 13 14 18 21 19 17 16 15 14 13 11 11 13 14 16 17 20 22 22 20 18 19 21 23 24 24 23 21 19 18 16
1 2 2 2 2 3 5 6 6 5 5 2 3 3 5 5 3 6 5 7 10 11 10 9 5 3 3 7 15 23 23 21 22 23 22 22 21 20 18 15 15 18 19 18 18 18 18 16 15 14 15 15 15 12 10 11 12 12 14 17 16 14 13 14 13 13 12 12 13 13 12 14 19 24 24 22 22 23 23 24 24 23 21 18 17 18 18
1 3 2 1 2 3 4 4 5 4 3 2 3 2 5 4 6 8 7 10 13 12 11 10 7 8 11 15 20 23 22 21 22 22 22 22 20 17 16 13 13 16 18 18 17 17 16 15 13 12 12 13 13 12 11 10 10 10 10 14 16 14 13 13 14 15 14 12 12 13 11 10 15 21 24 24 24 25 25 24 23 20 18 16 16 17 17
0 2 2 0 3 3 3 4 3 1 1 1 2 4 5 7 9 9 9 12 13 12 11 12 13 15 18 19 20 21 21 22 23 22 21 22 22 17 14 12 13 15 17 18 16 16 15 13 12 11 11 10 9 10 11 9 7 6 7 11 14 15 15 14 14 15 13 10 11 13 11 9 13 18 20 21 21 22 24 23 20 17 16 17 17 16 17
1 2 2 1 3 4 5 5 1 1 1 3 5 7 9 10 10 9 11 12 13 13 14 15 17 17 18 19 21 21 21 22 21 20 20 23 24 20 15 15 16 17 17 17 17 16 12 11 11 10 9 8 7 7 9 8 5 3 5 7 10 13 15 14 13 14 13 13 14 13 10 11 16 19 19 18 18 19 19 17 16 17 18 18 18 18 18
2 1 1 3 4 5 6 5 3 3 3 4 6 7 9 10 11 11 13 13 13 13 15 18 19 18 17 19 20 21 22 21 20 19 21 23 22 21 21 21 20 19 19 18 17 14 9 6 7 6 4 4 3 3 4 3 2 1 4 6 8 11 14 15 15 15 16 16 16 15 14 15 19 21 20 19 19 19 17 14 16 19 20 20 20 19 19
3 3 4 5 5 5 3 4 4 4 4 6 6 7 9 10 11 11 13 15 15 15 17 19 19 16 16 18 20 20 21 22 20 20 22 22 20 21 24 25 22 22 23 20 15 11 6 3 3 2 2 1 1 1 1 1 2 2 4 8 10 12 14 16 17 17 16 16 16 16 16 17 20 22 22 21 21 21 18 18 20 21 21 20 21 21 21
1 1 1 4 5 2 3 4 4 5 6 8 8 9 11 12 12 13 13 15 17 16 16 16 15 14 16 18 19 19 21 22 22 22 22 20 18 19 22 23 22 22 20 15 11 8 5 4 2 1 0 1 0 2 1 1 2 3 5 8 11 14 17 19 19 17 16 17 18 16 17 19 21 22 22 23 24 23 21 21 23 23 22 22 23 22 22
2 1 2 4 3 2 3 3 4 6 7 8 9 10 12 13 13 13 12 13 14 14 13 13 14 16 17 18 20 20 21 22 22 21 19 18 17 18 19 19 19 17 14 10 8 7 4 4 3 1 2 2 2 2 2 2 1 3 5 7 9 14 18 20 19 17 18 21 22 21 21 22 23 22 22 23 24 23 23 24 23 23 24 24 24 24 23
2 3 5 4 2 4 3 2 3 6 7 8 10 11 14 14 12 11 11 11 12 14 15 15 16 17 18 18 21 21 20 20 21 20 18 17 18 18 18 16 15 13 11 7 7 6 2 3 4 3 3 4 4 4 4 3 4 5 5 6 8 13 18 20 21 22 23 24 25 24 24 24 23 23 23 23 22 22 22 22 23 24 25 25 24 25 23
1 2 3 2 2 2 2 1 4 8 10 11 13 14 14 13 11 12 12 11 12 15 16 16 16 17 17 18 19 20 19 19 19 19 19 20 20 18 16 15 14 12 8 5 5 4 1 3 5 5 4 5 6 6 5 6 6 6 7 9 11 14 17 19 23 26 27 27 25 24 24 25 24 23 22 21 20 19 19 19 21 23 24 25 24 22 20
2 3 2 1 0 2 4 5 8 10 12 13 15 14 13 13 14 14 13 12 14 15 16 16 16 16 17 17 18 18 19 18 18 20 20 20 19 17 15 16 14 10 5 3 5 5 3 4 6 8 8 6 6 7 6 6 7 7 9 12 14 16 17 20 23 26 27 27 25 24 25 26 25 24 22 19 18 18 18 19 20 21 21 21 20 17 17
4 4 3 2 1 3 6 9 11 12 12 13 14 14 14 15 16 14 13 15 16 16 16 16 14 14 16 17 18 18 18 18 18 18 18 17 16 16 15 15 13 7 1 3 7 7 6 7 8 9 10 8 7 6 5 5 7 9 12 15 16 16 18 22 24 25 25 26 25 24 25 25 25 24 24 22 19 19 20 21 21 21 19 18 16 14 13
5 4 2 1 3 6 8 11 12 12 12 12 14 16 16 17 16 14 14 16 16 16 16 15 13 14 15 16 16 17 17 16 16 15 14 14 15 15 15 14 11 5 5 6 10 9 8 9 9 9 10 9 7 7 6 6 7 10 13 15 16 16 19 25 27 26 25 24 23 23 25 25 24 24 24 24 23 22 22 21 21 20 19 17 16 14 10
3 1 3 5 7 9 9 11 12 12 12 15 17 18 17 15 13 12 13 14 14 14 14 13 12 13 13 13 13 13 14 14 14 12 12 13 14 14 14 13 8 6 7 8 10 10 10 10 9 8 10 10 9 9 8 7 8 10 13 16 17 16 20 26 27 26 25 24 23 24 25 25 24 24 24 25 25 25 24 21 19 19 19 17 16 14 12
1 4 6 8 8 8 8 10 12 13 15 16 16 15 13 11 10 11 11 11 11 11 11 11 11 11 11 11 11 12 12 13 13 13 13 14 14 14 14 12 7 8 10 11 10 8 10 10 8 8 9 9 9 11 10 8 8 11 14 16 17 17 19 24 25 24 24 24 24 25 26 25 26 26 25 25 24 25 25 23 20 19 20 18 15 13 13
3 4 6 6 7 8 9 10 12 13 14 14 13 13 13 13 14 14 12 10 10 12 12 12 11 11 11 11 11 11 12 13 14 14 15 14 13 13 12 11 10 12 13 14 11 8 8 8 8 7 8 7 8 12 12 10 11 13 15 17 18 19 21 24 23 22 23 24 26 27 27 27 28 27 26 25 24 24 24 24 23 22 21 19 16 14 12
2 3 4 4 6 10 12 11 12 13 13 13 14 15 16 15 14 13 12 11 12 13 13 12 12 12 13 12 11 11 11 12 12 13 13 13 12 12 11 12 13 15 15 14 11 9 8 9 9 8 7 8 8 11 13 13 13 15 17 18 19 21 24 24 23 23 24 25 26 28 28 29 29 28 27 26 25 25 24 23 23 23 23 21 19 16 13
4 6 7 7 7 10 12 12 14 15 15 16 16 15 14 13 12 12 12 12 13 13 12 11 11 11 12 11 10 10 10 10 10 11 11 11 12 12 11 12 13 15 15 12 9 8 9 10 9 7 6 7 8 11 13 14 16 17 18 20 22 23 25 25 24 25 26 27 28 29 29 29 29 28 28 26 25 25 25 24 23 23 23 22 20 18 16
7 8 8 8 8 10 12 14 15 16 17 17 17 14 12 12 13 13 12 12 12 12 12 11 11 10 10 10 10 10 9 9 9 9 9 9 10 10 10 11 11 12 11 9 6 6 8 9 7 5 5 5 7 11 14 16 17 18 20 22 24 24 24 24 25 26 28 29 30 30 30 29 29 28 28 27 26 25 25 23 22 21 21 19 18 18 20
7 7 7 8 9 12 13 14 15 17 17 16 15 14 12 13 14 13 11 10 11 11 11 12 11 10 10 10 10 9 8 7 7 7 7 7 8 8 8 8 8 8 8 7 6 7 7 7 6 7 7 5 5 11 15 18 19 20 23 26 26 24 24 25 25 26 28 29 31 31 30 30 29 29 29 28 27 26 25 23 22 20 19 18 18 19 21
7 8 8 9 10 12 13 14 16 17 16 15 14 13 11 11 12 12 11 10 10 11 12 12 12 11 9 9 9 8 7 6 5 6 6 6 6 6 6 6 6 6 6 7 7 7 5 5 6 7 8 6 4 9 14 18 20 20 24 28 29 28 27 28 28 29 30 32 33 32 31 30 31 31 30 29 28 27 25 23 22 20 18 18 19 20 22
7 9 10 10 10 12 15 16 17 16 14 13 12 11 9 9 9 10 10 10 10 11 11 10 10 9 8 7 7 7 6 6 6 7 8 7 5 4 4 4 5 5 5 6 7 6 5 6 7 7 8 8 5 7 14 19 21 22 25 29 31 31 30 30 31 33 34 35 35 33 31 31 32 32 31 30 29 28 26 24 22 20 20 21 22 22 21
6 8 9 9 11 13 15 16 17 15 12 11 10 9 8 8 9 9 10 10 10 10 9 9 8 7 7 7 7 7 7 7 7 8 10 10 6 3 3 4 4 3 4 6 7 7 6 6 8 8 8 8 7 8 14 20 23 26 28 29 31 32 32 31 33 35 37 37 36 33 31 32 33 32 32 31 29 27 25 23 22 22 23 24 23 22 21
6 7 9 10 12 13 13 14 14 12 10 9 9 9 9 8 9 9 9 8 8 8 8 8 7 7 7 7 7 8 10 10 9 9 11 10 6 2 2 3 3 2 3 5 7 7 5 5 7 8 7 6 7 9 13 18 21 25 28 29 30 32 33 33 34 36 37 37 36 34 34 34 34 32 30 30 28 26 24 23 23 24 25 25 24 22 21
7 9 10 11 11 11 11 10 9 8 7 8 8 7 7 7 8 8 8 7 7 8 8 8 9 9 8 8 9 11 12 11 10 9 10 9 7 4 2 3 2 2 3 5 6 5 4 4 6 7 6 5 7 8 11 15 18 21 25 28 31 33 35 36 37 37 36 36 35 35 34 34 33 32 30 28 27 25 24 24 24 25 25 25 24 23 22
7 9 10 9 9 9 8 8 7 6 5 5 5 5 6 6 7 7 8 9 9 10 10 10 10 9 8 9 11 11 10 8 9 9 9 8 6 5 3 2 2 3 3 4 3 4 5 5 5 5 5 6 8 10 10 12 15 18 20 26 33 37 39 40 40 38 37 37 35 34 35 35 35 33 30 27 26 24 23 24 26 26 25 24 23 23 23
7 8 7 7 7 7 6 5 5 4 5 5 6 7 8 8 8 9 10 11 11 10 9 9 9 8 8 8 8 7 6 6 8 8 7 6 5 4 1 1 1 2 3 5 6 7 8 8 5 3 3 5 8 11 11 11 13 15 16 20 29 36 39 40 41 41 39 37 36 35 37 38 35 32 28 26 24 23 22 24 26 26 25 23 22 21 21
6 5 4 5 5 4 3 4 4 6 7 8 8 9 8 8 7 7 8 8 7 6 6 7 8 7 5 4 4 4 4 5 5 5 4 5 4 2 2 3 5 7 8 8 8 9 9 10 9 6 3 2 3 7 8 8 10 13 14 17 24 32 36 39 42 42 39 38 37 38 38 36 33 30 28 26 23 22 23 26 28 27 24 22 21 19 17
4 3 3 3 3 2 3 4 6 7 7 7 8 8 7 6 5 5 5 6 5 5 6 6 5 4 4 3 3 3 3 3 3 3 4 4 4 4 6 8 8 9 8 7 7 8 10 11 11 9 7 6 5 2 4 8 11 15 19 23 27 31 34 37 40 40 40 40 40 39 37 34 32 29 27 26 25 26 27 29 29 27 24 21 19 18 16
3 2 2 2 2 2 4 5 5 5 6 7 8 8 7 6 6 6 7 6 5 4 4 4 3 3 3 3 3 4 5 5 4 4 5 6 8 9 12 13 11 9 7 6 6 8 10 11 11 10 8 5 4 1 6 11 16 20 24 28 30 33 36 40 42 43 43 42 40 36 34 32 31 29 27 27 28 28 29 28 27 24 21 20 19 18 16
1 1 1 1 2 2 3 4 5 7 8 9 9 8 8 9 9 8 7 6 4 3 3 4 4 4 5 5 5 6 7 8 8 9 11 13 16 18 20 20 18 16 16 16 18 19 20 21 19 17 13 9 6 5 8 13 19 24 29 31 33 35 38 41 42 42 41 39 37 35 33 32 30 27 26 25 25 26 26 26 24 21 19 18 18 17 16
0 1 1 2 3 3 4 5 7 8 9 10 11 12 12 11 10 9 8 7 6 5 5 5 5 5 5 6 7 10 13 16 18 20 23 24 25 26 26 25 24 24 23 24 25 25 25 24 23 21 18 15 15 16 18 21 23 27 30 34 36 37 36 37 38 37 36 35 34 33 31 28 25 24 23 23 24 24 24 22 20 18 17 17 17 17 16
1 1 2 3 4 4 5 6 7 8 9 10 12 13 13 12 11 10 9 8 8 7 7 7 7 8 9 11 14 17 20 23 25 27 29 29 29 27 26 25 24 24 24 24 25 25 24 23 23 21 20 20 21 24 27 29 30 31 33 34 35 35 34 33 32 32 32 31 30 28 26 23 22 22 23 23 23 22 20 18 16 16 16 15 15 14 13
3 3 3 4 4 4 5 6 7 8 9 11 12 13 13 12 12 11 11 11 11 10 10 10 12 14 16 19 20 21 22 24 26 28 29 30 29 26 24 22 22 23 23 24 25 24 23 22 22 23 22 22 22 24 26 28 29 30 30 29 29 29 29 28 27 28 29 29 27 26 24 24 24 24 23 22 21 19 17 15 14 14 14 13 11 10 9
6 6 6 5 6 6 6 6 7 9 11 12 14 14 14 14 14 14 14 14 14 13 12 12 14 17 20 21 22 23 24 26 27 28 28 28 27 24 21 21 21 22 23 25 26 25 24 23 23 23 23 23 23 24 25 26 27 27 27 27 27 27 26 26 25 26 27 27 26 25 24 24 24 22 20 19 18 17 15 14 14 13 12 11 9 7 6
7 7 7 6 7 7 7 7 9 12 14 15 17 17 16 15 15 14 14 14 14 14 13 13 14 16 18 19 21 23 24 25 26 26 25 24 24 23 22 21 21 20 21 22 24 24 23 23 22 22 23 23 24 24 25 25 25 25 25 25 25 25 24 23 22 23 23 24 24 23 22 21 20 19 18 17 16 15 14 13 12 11 9 8 6 5 5
6 7 6 6 7 7 8 9 11 13 15 16 16 15 13 12 13 13 14 14 14 14 13 13 14 15 16 17 19 20 21 23 24 25 24 24 25 26 25 25 24 23 22 22 23 22 21 21 21 21 21 22 23 23 22 23 23 23 23 24 25 25 25 24 24 23 24 23 23 22 21 20 20 19 17 16 14 12 11 10 9 8 7 7 6 5 6
6 6 6 5 6 7 9 10 12 13 14 15 13 12 11 12 14 15 16 16 16 17 16 15 15 15 16 17 18 19 19 21 23 23 23 23 23 24 25 25 25 25 24 23 22 21 19 19 19 19 20 20 21 21 22 22 22 23 23 23 23 23 22 21 21 21 21 20 19 19 18 17 17 16 15 14 12 10 9 8 8 7 6 6 5 5 6
6 5 5 4 5 7 9 11 12 13 14 14 14 13 12 13 15 17 18 18 19 19 18 18 18 18 17 17 18 19 20 21 22 22 22 21 21 21 22 22 22 22 22 21 20 18 17 16 17 18 19 19 19 20 20 20 21 21 20 19 19 18 17 17 17 17 17 17 16 15 14 14 13 13 12 11 9 9 8 8 8 7 7 6 6 5 5
5 5 5 4 5 7 9 11 12 11 10 10 12 14 13 13 15 18 20 20 21 21 21 21 20 20 19 19 18 18 19 20 20 20 20 20 20 20 19 19 18 18 18 18 18 17 16 16 16 16 17 18 19 19 18 18 18 18 17 16 15 15 15 15 15 14 14 15 14 14 12 11 10 9 9 7 6 6 7 7 8 8 8 7 6 6 6
5 6 6 6 7 8 10 11 12 10 8 9 11 13 14 14 16 19 20 20 20 22 23 24 24 23 23 23 22 21 21 20 20 19 19 20 20 20 19 19 18 18 18 18 18 19 19 18 17 16 15 17 18 17 16 15 14 13 13 13 13 13 12 12 12 11 11 11 11 10 9 8 7 7 7 7 6 5 5 4 4 4 5 5 6 8 9
Wind_Direction
262 241 248 278 294 45 51 39 33 40 52 65 74 77 90 105 117 218 250 191 135 225 280 318 320 329 334 325 340 343 336 334 342 345 346 352 354 348 344 342 340 346 348 341 328 292 256 238 224 223 226 226 224 225 228 231 237 245 250 246 238 233 230 227 228 230 231 232 234 233 234 234 235 239 241 242 243 242 240 242 241 235 232 222 214 217 222
314 308 302 317 357 68 62 40 28 44 58 64 73 71 60 97 142 203 189 124 145 239 286 303 321 344 347 338 342 344 339 330 332 339 343 347 350 347 344 339 335 338 342 342 337 312 264 242 233 227 226 228 227 225 224 226 234 242 248 250 244 236 230 226 226 228 229 231 231 230 230 232 236 240 242 243 242 241 239 237 236 232 224 217 215 219 227
325 309 318 353 67 89 70 43 25 35 50 51 55 38 29 80 159 303 40 87 195 287 310 308 326 348 348 339 336 339 338 329 324 334 341 344 346 345 341 333 327 330 336 339 339 327 285 258 254 244 228 224 225 225 227 231 235 239 243 249 251 243 234 229 228 227 226 224 224 228 230 233 239 241 242 243 241 238 233 230 233 231 222 218 219 222 228
304 295 325 353 90 95 70 41 15 19 40 42 36 11 12 63 322 344 22 32 257 281 311 320 336 345 340 334 329 329 330 328 326 337 345 345 344 342 335 324 319 327 335 335 336 333 309 280 277 267 242 235 242 249 250 250 252 254 250 248 252 249 243 238 233 226 222 216 216 231 237 237 238 239 238 239 237 235 233 234 237 233 222 217 219 223 229
283 279 312 334 62 80 46 348 334 2 28 18 11 4 356 360 99 115 140 240 240 269 312 328 335 333 330 329 327 326 330 336 344 348 348 348 345 338 328 318 315 326 333 332 331 333 328 314 305 289 263 263 280 290 286 276 272 267 250 241 246 251 250 246 234 221 223 231 236 250 251 243 239 237 237 238 237 236 238 239 236 226 217 217 221 227 232
266 281 319 11 18 318 257 263 315 74 80 85 183 227 280 308 10 121 173 242 278 307 322 326 322 324 327 326 327 336 356 5 2 350 345 347 345 334 322 316 318 328 335 333 329 331 334 329 322 313 297 287 287 285 279 273 270 262 245 237 241 244 243 242 234 228 243 249 246 250 248 241 239 240 240 240 238 236 236 234 228 220 219 223 225 228 231
241 303 21 36 312 239 223 250 9 75 96 123 163 221 243 246 18 46 42 339 320 324 327 330 334 336 333 329 333 25 23 3 357 347 340 341 340 330 321 317 321 332 336 333 330 334 336 329 322 326 322 304 290 278 263 255 254 253 247 243 238 230 226 232 240 245 245 236 232 238 238 236 239 239 238 237 237 236 234 229 226 223 224 225 223 222 224
271 14 40 13 238 241 268 311 358 52 49 54 68 300 277 239 174 133 89 293 302 326 333 334 340 338 334 334 355 34 355 349 351 347 340 337 332 325 321 319 325 335 335 330 331 336 336 330 322 319 314 290 278 272 258 250 252 250 245 242 237 229 226 229 235 239 233 224 224 231 233 233 233 231 230 231 232 234 234 229 225 222 219 218 218 218 218
183 149 360 25 199 287 309 313 312 104 195 211 136 249 275 246 188 160 174 285 308 331 331 329 334 335 335 339 342 343 345 345 345 343 339 335 329 321 317 321 333 341 338 329 334 341 340 335 328 321 316 303 292 286 269 259 261 255 244 237 234 233 230 228 231 237 233 222 226 236 237 232 230 226 221 219 221 226 229 227 222 217 213 212 212 213 210
135 114 28 31 152 251 244 254 258 227 230 239 198 187 277 274 298 345 334 284 307 317 317 322 333 339 341 328 316 335 343 342 339 341 341 339 331 317 313 323 342 350 345 331 337 351 350 343 337 330 326 326 324 314 293 275 269 258 244 236 234 235 233 231 236 244 242 234 238 250 251 240 232 225 218 215 215 216 218 219 217 212 210 208 203 198 193
81 107 174 210 213 239 235 242 253 243 251 255 202 60 295 268 313 343 336 309 310 310 308 316 334 350 352 292 309 330 338 335 334 338 340 343 338 320 316 332 348 354 354 339 334 351 357 349 344 342 338 339 339 329 312 300 289 267 247 238 235 236 235 234 236 239 240 241 247 256 257 247 234 224 220 224 222 214 213 215 212 206 203 200 191 180 176
249 138 178 227 224 235 237 236 238 244 258 283 53 12 277 249 307 337 330 317 316 316 316 320 329 331 299 290 310 326 333 330 330 335 338 343 344 328 323 340 353 353 355 345 333 343 354 350 346 345 343 344 343 336 326 318 310 290 258 238 234 239 242 240 237 236 238 243 247 248 250 254 245 233 230 232 226 217 213 210 205 198 192 188 181 172 170
202 146 150 264 249 234 237 228 228 254 296 38 68 254 253 276 325 330 327 321 319 319 319 317 303 293 301 307 313 323 329 327 326 333 337 342 346 336 325 338 356 354 351 348 343 345 349 348 344 341 341 346 349 346 339 331 325 314 276 242 233 236 239 237 235 238 241 244 245 238 236 258 259 245 241 242 232 221 213 203 194 186 179 176 178 173 166
180 146 128 293 274 254 225 211 220 334 20 153 231 261 297 319 319 320 323 321 317 315 314 311 304 303 312 318 319 322 326 326 326 330 337 343 348 344 333 340 357 354 347 347 351 354 353 350 348 349 346 345 348 349 344 336 325 312 273 247 240 236 234 232 231 235 236 225 221 224 231 257 256 239 236 241 232 217 208 197 184 177 173 172 175 170 159
71 55 71 38 276 244 203 194 220 28 165 228 271 300 317 319 312 308 311 314 313 309 307 309 309 309 314 321 325 325 325 328 329 330 338 345 345 343 345 352 355 351 344 344 352 359 1 357 357 1 357 348 347 349 348 346 332 296 241 233 239 235 228 225 223 226 223 208 203 208 216 236 238 226 220 227 225 216 209 194 175 172 173 170 170 167 159
123 116 211 215 209 198 182 179 209 224 234 286 306 304 307 316 317 306 300 306 312 308 307 310 311 311 316 323 328 331 332 334 334 333 340 345 342 342 351 356 353 348 347 349 355 1 4 6 9 9 356 354 11 5 351 4 7 265 211 201 213 217 214 212 210 212 211 201 197 201 203 211 219 216 211 216 221 217 207 188 173 172 171 168 170 169 163
168 176 212 205 181 177 192 217 234 253 291 315 317 300 292 304 315 309 300 305 310 309 310 312 310 311 321 326 326 330 333 334 334 334 338 343 346 348 352 353 351 350 352 354 355 357 9 40 36 13 322 299 109 95 55 116 147 192 204 195 195 197 195 195 196 197 195 189 187 192 197 201 204 204 202 204 208 207 196 183 177 171 168 170 174 172 166
139 111 180 171 163 193 257 242 251 289 307 306 305 300 293 298 309 310 305 308 311 312 316 320 319 321 328 329 327 327 328 328 329 331 334 340 350 352 349 349 350 349 350 350 344 347 25 70 67 40 316 267 128 99 97 143 150 169 194 194 188 183 182 184 186 183 178 177 177 181 191 197 198 198 198 199 200 195 186 181 178 171 169 173 175 171 166
112 291 253 176 164 276 283 245 260 291 307 306 301 297 298 304 311 312 313 318 321 324 328 329 326 325 325 324 322 323 324 324 326 328 331 337 345 347 346 348 350 350 351 347 332 334 15 76 101 152 183 186 157 141 163 206 216 202 201 194 180 175 178 181 180 173 170 172 172 174 182 189 190 191 194 197 195 187 179 178 176 171 171 174 173 170 168
163 241 238 203 216 280 257 215 298 319 333 332 324 317 314 314 314 317 325 333 335 337 335 327 320 320 321 319 319 320 321 324 326 328 331 334 337 342 346 347 351 359 1 339 318 327 357 125 147 181 196 188 186 184 181 201 234 238 225 208 183 174 177 179 174 169 170 172 173 174 177 180 183 187 189 188 187 183 180 179 177 174 174 174 173 172 170
304 276 235 235 309 288 222 211 333 336 339 334 330 328 323 317 315 319 325 330 332 335 334 327 320 320 321 320 319 318 318 321 324 326 328 328 330 339 347 346 353 12 15 335 322 342 322 198 195 214 219 202 198 200 194 203 223 232 229 220 200 183 181 181 176 172 173 174 175 176 176 175 178 182 181 178 177 178 180 181 181 180 177 174 174 173 170
269 242 196 177 220 241 255 294 316 321 324 324 323 324 325 326 326 325 323 323 321 322 325 323 319 317 319 320 318 317 317 319 321 322 322 323 327 337 345 348 357 21 43 12 5 9 327 268 239 230 227 211 198 202 209 213 216 221 224 219 206 194 192 191 183 178 177 177 176 178 178 176 175 174 173 172 174 177 177 180 183 184 180 176 173 170 166
203 190 156 131 166 244 275 299 309 312 318 322 320 321 325 327 326 323 322 325 323 320 320 320 315 313 317 318 317 317 317 316 317 318 319 322 327 331 339 351 360 7 357 335 352 350 323 299 275 247 234 220 202 201 210 213 214 222 227 221 209 201 199 194 187 183 183 182 180 179 178 175 172 170 168 169 173 177 178 179 181 181 180 177 171 165 164
139 148 159 267 290 288 296 307 312 314 318 318 317 318 320 320 319 318 322 328 327 320 317 319 319 318 319 319 318 318 317 316 317 319 321 323 324 325 336 354 358 331 287 314 335 339 330 317 301 274 253 240 220 205 200 200 212 225 231 227 219 207 196 191 188 185 186 186 183 178 175 171 169 171 171 169 169 172 176 179 180 179 178 173 164 158 155
148 238 289 298 295 296 303 306 306 308 311 312 315 318 319 320 322 325 330 333 329 322 321 325 325 321 319 318 318 316 314 313 316 318 318 318 318 323 340 356 347 291 287 315 331 337 336 327 313 288 266 253 235 219 210 201 209 226 233 232 228 215 197 192 190 187 186 186 183 178 174 171 171 176 175 171 167 168 172 175 177 175 171 163 155 152 149
287 296 297 291 285 294 308 309 308 311 314 315 318 320 320 323 323 322 327 331 326 321 323 324 320 316 317 316 313 311 308 308 310 311 311 314 319 327 340 346 320 281 295 316 324 331 335 327 312 295 278 258 234 223 218 208 209 224 231 232 233 223 202 193 193 191 187 185 181 178 176 175 176 177 175 171 168 168 169 168 164 159 156 152 154 159 158
302 297 295 289 294 311 320 319 318 317 315 317 320 321 320 318 313 310 312 316 315 314 315 314 310 308 310 309 306 305 303 302 304 307 310 315 322 327 330 327 307 294 307 320 324 327 327 314 300 297 293 273 239 221 217 212 209 218 224 227 228 219 200 191 193 194 190 187 183 179 178 179 179 176 172 170 169 170 171 168 161 156 154 155 158 163 165
266 296 314 321 323 321 317 313 311 311 314 319 321 319 318 316 311 309 310 310 311 313 314 315 313 308 305 305 305 304 301 299 302 309 312 315 318 316 313 312 304 299 305 315 322 323 314 300 295 294 288 272 244 223 218 213 207 210 217 220 218 208 196 191 193 193 190 188 186 182 181 181 178 174 172 172 172 172 172 170 166 163 161 159 159 161 166
273 298 307 310 312 310 306 304 306 312 319 321 318 317 319 318 314 314 315 314 314 314 315 319 321 315 307 303 302 303 304 304 311 318 316 313 312 310 311 312 307 301 303 313 324 321 304 293 292 292 281 261 238 224 221 214 205 205 212 215 212 205 196 192 191 190 188 187 186 184 183 181 178 175 174 174 174 174 172 171 170 168 165 163 163 162 160
295 303 307 309 307 305 306 311 317 321 322 320 318 318 319 319 316 314 316 318 318 316 317 321 324 320 313 307 305 306 307 311 320 323 317 313 312 311 314 317 314 308 308 314 320 310 299 290 278 267 275 267 226 211 212 211 206 205 208 210 209 205 199 194 192 189 186 185 184 182 180 179 178 178 177 175 175 174 173 172 171 169 166 164 164 160 155
306 312 316 315 310 309 314 318 320 320 320 321 321 318 317 319 319 316 317 323 324 321 322 322 320 318 316 314 313 310 309 315 321 317 312 316 318 314 313 317 319 318 317 313 303 296 296 293 271 256 270 277 216 197 204 210 207 204 204 206 207 206 202 196 193 190 187 185 182 180 179 178 179 180 179 176 174 174 173 170 169 167 161 158 158 158 155
314 317 320 320 317 317 318 316 315 317 320 322 321 319 322 326 321 314 315 322 323 321 320 318 315 316 318 319 318 314 311 315 319 313 309 312 316 316 313 309 310 321 330 322 308 299 292 282 265 258 268 277 233 194 201 206 205 202 202 202 204 206 203 196 192 190 187 183 181 181 182 182 181 181 180 177 174 173 172 170 167 164 159 156 156 156 154
320 321 325 329 328 322 317 314 312 313 318 322 321 318 322 325 316 310 313 316 316 316 316 314 316 320 323 324 322 315 311 317 324 321 316 310 303 304 311 301 298 323 344 333 315 304 286 266 259 259 266 272 255 202 197 200 199 199 200 201 202 204 202 194 190 188 185 182 182 184 185 185 183 181 179 176 173 170 168 167 164 159 154 153 152 151 149
313 317 323 328 324 318 314 313 310 308 313 321 320 315 318 320 315 312 315 317 318 319 317 316 320 324 327 329 324 314 314 325 331 327 323 320 308 288 292 300 302 323 346 335 317 306 289 272 274 280 277 265 244 211 201 201 199 199 200 201 202 203 199 193 190 188 186 185 186 186 185 183 182 180 176 172 168 165 163 161 157 153 150 149 148 148 148
294 302 308 310 310 309 309 310 309 306 309 315 315 313 317 320 318 318 321 324 325 322 319 321 325 326 327 329 322 315 321 328 326 322 328 335 337 303 279 300 306 312 327 319 309 304 293 277 285 299 295 262 230 213 207 206 206 203 200 199 200 202 200 195 191 190 190 189 187 184 181 180 179 178 174 167 161 159 157 155 152 151 152 152 152 152 151
291 299 304 307 308 310 312 311 308 305 307 313 316 315 315 315 318 322 323 321 319 315 313 317 321 323 324 321 316 316 321 323 322 330 351 9 20 19 350 327 309 286 284 285 284 287 290 277 277 289 286 242 214 212 212 211 214 211 204 198 199 201 198 192 189 190 193 192 186 181 179 177 175 173 170 163 156 153 153 151 151 152 154 155 155 154 153
299 304 307 311 314 315 314 313 312 312 313 313 309 304 305 309 314 313 308 306 306 306 309 315 318 314 310 314 319 323 325 330 342 360 19 27 19 3 345 309 264 258 270 282 293 313 326 323 304 287 269 224 201 206 215 217 219 220 213 203 198 195 192 189 188 189 191 190 184 177 173 171 169 168 164 156 149 148 150 152 152 153 153 152 152 152 153
310 310 312 318 322 322 318 313 311 310 304 297 296 298 299 301 301 299 299 301 304 307 313 321 318 307 302 313 327 334 340 355 8 19 29 24 5 349 321 226 291 342 352 350 344 340 343 351 356 325 268 230 208 211 220 225 227 231 229 213 199 192 190 189 189 187 186 183 179 172 167 165 163 159 154 148 145 148 152 157 158 157 155 154 153 152 153
313 313 320 325 326 330 326 312 308 308 305 303 305 305 302 301 302 304 309 316 325 336 340 336 332 333 339 350 5 10 6 11 21 29 34 27 16 22 67 60 32 22 17 6 352 346 351 1 12 20 19 335 261 233 229 232 232 229 223 210 198 192 189 186 182 179 176 172 166 163 161 158 154 150 146 145 146 150 153 157 160 161 160 158 156 154 153
309 319 338 337 334 342 334 318 314 316 318 320 321 319 321 330 339 342 349 1 12 12 354 341 348 15 36 44 47 44 44 54 66 70 65 61 66 76 72 60 43 27 17 1 344 344 351 358 6 21 36 29 6 313 231 221 216 206 196 189 185 180 176 171 166 161 158 157 155 155 154 150 146 145 145 142 141 145 149 153 156 159 160 158 157 155 152
314 334 358 353 348 345 335 331 338 348 353 350 346 345 356 12 18 15 15 21 25 19 10 12 33 64 85 89 81 81 87 91 93 97 95 88 84 83 79 74 68 63 57 50 41 38 37 35 36 42 49 43 25 320 212 208 199 187 181 178 171 160 154 152 151 149 149 150 150 149 146 143 141 140 137 134 137 144 150 153 155 156 156 157 156 153 148
307 351 37 41 31 19 11 19 26 22 12 7 10 23 39 45 40 35 37 43 43 38 48 62 73 88 100 101 94 94 99 99 96 96 94 90 89 90 89 87 86 86 84 80 76 71 67 64 62 61 62 65 82 123 159 169 166 160 157 156 151 144 140 140 141 142 142 142 141 139 140 140 138 134 132 135 141 146 149 151 152 153 153 155 156 155 152
192 89 93 79 70 66 59 47 35 27 23 28 37 44 48 49 48 49 56 62 59 54 62 74 80 86 92 98 102 103 102 100 97 94 91 89 88 89 89 89 89 88 84 81 77 74 71 69 67 68 71 80 95 107 114 120 126 128 127 127 128 129 129 130 132 134 133 133 134 137 139 137 132 131 136 143 147 147 146 149 151 152 150 150 151 154 155
135 120 109 92 84 77 61 45 37 38 44 51 53 52 50 50 55 63 72 74 71 69 73 78 84 93 98 99 100 101 100 99 98 95 92 89 85 83 83 85 87 87 85 83 80 78 76 75 76 80 86 94 102 107 111 114 119 122 123 123 124 126 126 126 127 127 126 127 131 136 136 133 131 135 140 144 146 147 147 147 148 148 147 146 147 150 153
120 121 116 105 97 87 65 49 47 55 64 71 71 66 62 64 71 77 79 77 75 79 83 85 90 98 102 101 99 98 100 100 98 94 89 86 83 81 81 82 84 86 87 88 87 85 84 85 86 89 93 98 102 105 108 112 115 118 121 122 122 122 121 120 120 120 122 126 130 132 132 133 135 137 139 142 145 146 145 143 143 144 144 144 143 145 147
115 115 113 106 101 95 82 68 69 76 82 86 87 82 80 82 85 84 82 80 80 84 90 93 95 99 103 104 105 105 105 102 96 89 85 84 83 83 85 86 88 90 92 93 93 93 93 93 93 92 92 95 98 100 102 104 105 106 108 110 111 112 113 114 114 118 123 129 133 134 135 136 137 139 142 145 146 145 142 140 141 143 144 144 144 146 150
120 116 111 102 102 104 101 96 96 97 97 97 96 93 91 89 87 84 84 85 86 88 93 98 100 101 104 107 110 109 108 104 97 91 87 87 87 88 89 90 92 95 95 96 96 97 98 98 98 95 93 92 95 98 100 101 102 102 104 107 108 111 114 115 116 118 123 127 131 133 134 136 139 143 147 148 147 145 145 146 146 149 153 156 161 168 168
125 119 111 105 109 118 122 117 111 107 104 101 100 99 98 95 91 90 90 92 94 97 100 104 106 108 110 110 108 105 103 102 99 96 94 93 92 91 90 91 92 95 97 97 98 99 98 98 98 97 95 94 94 95 97 99 100 101 103 104 106 108 112 115 117 121 124 127 130 132 133 135 139 142 145 146 146 148 151 153 155 158 158 157 160 169 174
134 126 120 119 127 137 141 136 123 112 107 104 101 99 99 97 95 96 98 99 100 102 104 107 111 114 114 110 106 102 101 100 100 100 100 98 95 92 92 92 92 92 94 94 94 94 93 91 92 94 96 98 98 97 98 100 102 104 106 107 108 110 113 116 119 124 128 131 134 135 137 139 141 142 141 141 142 145 148 152 155 158 159 161 166 177 190
149 140 134 137 145 153 157 150 134 119 111 104 96 93 98 103 103 103 103 103 103 104 106 108 111 113 113 111 109 108 107 106 105 104 104 103 98 94 93 91 89 87 86 85 84 84 85 88 90 89 89 92 97 103 106 107 108 109 110 112 113 115 117 119 121 124 126 128 130 131 133 136 140 141 141 141 143 150 158 164 168 172 178 184 186 195 218
151 144 141 140 146 156 162 159 149 138 126 111 101 98 103 109 111 110 109 107 106 106 107 108 109 110 110 110 111 112 112 111 108 105 104 104 102 100 97 92 88 85 84 82 82 83 87 94 100 101 98 98 101 104 107 109 110 111 111 113 114 114 115 117 119 121 122 124 126 127 128 132 140 148 152 155 156 160 165 170 175 181 189 199 211 232 255
143 143 139 134 138 149 157 159 156 152 144 127 117 113 114 117 119 118 115 111 108 107 108 108 108 106 103 103 104 106 107 106 103 101 100 101 102 101 98 94 89 86 83 81 80 81 84 87 91 96 101 104 105 104 104 107 110 110 110 113 115 115 117 121 127 130 132 135 136 135 132 129 131 136 143 147 150 152 157 167 185 209 229 247 263 274 283